This is the latest recevied weather packets stored in our database for station/object K2BIG. If no packets are shown the sender has not sent any weather packets the latest 1 day(s).
| Time | Temp. | Humidity | Pressure | Rain* | Wind** | Luminosity | Snow |
|---|---|---|---|---|---|---|---|
| 1778051115 | 20° C | 64% | 1008.3 hPa | 0 mm | 0.89 m/s, 203° | - | - |
| 1778050818 | 20° C | 64% | 1008.5 hPa | 0 mm | 2.24 m/s, 203° | - | - |
| 1778050517 | 20° C | 64% | 1008.6 hPa | 0 mm | 0.89 m/s, 180° | - | - |
| 1778050217 | 20° C | 64% | 1008.6 hPa | 0 mm | 1.79 m/s, 203° | - | - |
| 1778049917 | 20° C | 64% | 1008.6 hPa | 0 mm | 1.79 m/s, 203° | - | - |
| 1778049617 | 20° C | 64% | 1008.6 hPa | 0 mm | 1.79 m/s, 180° | - | - |
| 1778049317 | 20° C | 64% | 1008.7 hPa | 0 mm | 2.24 m/s, 203° | - | - |
| 1778049017 | 20° C | 64% | 1008.6 hPa | 0 mm | 1.34 m/s, 203° | - | - |
| 1778048717 | 20° C | 64% | 1008.6 hPa | 0 mm | 0.89 m/s, 158° | - | - |
| 1778048417 | 20° C | 64% | 1008.7 hPa | 0 mm | 0.89 m/s, 180° | - | - |
| 1778048117 | 20° C | 64% | 1008.7 hPa | 0 mm | 0.89 m/s, 203° | - | - |
| 1778047817 | 20° C | 63% | 1008.6 hPa | 0 mm | 0.45 m/s, 270° | - | - |
| 1778047517 | 20° C | 63% | 1008.6 hPa | 0 mm | 0.89 m/s, 180° | - | - |
| 1778047217 | 20° C | 63% | 1008.7 hPa | 0 mm | 0.89 m/s, 203° | - | - |
| 1778046917 | 20° C | 63% | 1008.6 hPa | 0 mm | 1.34 m/s, 180° | - | - |
| 1778046617 | 20° C | 64% | 1008.7 hPa | 0 mm | 1.34 m/s, 203° | - | - |
| 1778046317 | 20° C | 64% | 1008.6 hPa | 0 mm | 0.89 m/s, 180° | - | - |
| 1778046017 | 20.56° C | 63% | 1008.6 hPa | 0 mm | 0.89 m/s, 180° | - | - |
| 1778045717 | 20.56° C | 63% | 1008.8 hPa | 0 mm | 0.89 m/s, 158° | - | - |
| 1778045416 | 20.56° C | 63% | 1008.8 hPa | 0 mm | 0.45 m/s, 158° | - | - |
| 1778045117 | 20.56° C | 63% | 1008.9 hPa | 0 mm | 0.89 m/s, 158° | - | - |
| 1778044817 | 20.56° C | 63% | 1008.9 hPa | 0 mm | 1.34 m/s, 203° | - | - |
| 1778044517 | 20.56° C | 62% | 1009 hPa | 0 mm | 1.34 m/s, 180° | - | - |
| 1778044217 | 20.56° C | 62% | 1009 hPa | 0 mm | 0.89 m/s, 180° | - | - |
| 1778043917 | 21.11° C | 62% | 1009.1 hPa | 0 mm | 1.34 m/s, 203° | - | - |
* Rain latest hour (hover to see other rain measurements)
** Current wind speed in m/s (hover to see current wind gust speed)